Simultaneous Nadir Overpasses (SNOs) Predictions

Prediction of SNOs between GOES-16 and METOP-C Satellite Orbit:

Table of predicted SNOs for the next 14.0 days since TLE Epoch: 7/10/2021
Index Date Time (GOES-16) GOES-16 Lat,Lon METOP-C Lat,Lon Distance(km) Time Diff (sec)
1 07/10/2021 14:22:36 -0.04, -75.17 -0.45, -73.19 224.45 80
2 07/12/2021 02:44:15 0.03, -75.15 -0.56, -77.79 300.41 80
3 07/13/2021 02:20:56 0.05, -75.16 0.58, -72.80 269.70 80
4 07/14/2021 14:42:27 -0.04, -75.21 0.46, -77.35 244.70 80
5 07/15/2021 14:19:07 -0.05, -75.23 -0.67, -72.36 325.87 80
6 07/17/2021 02:40:47 0.03, -75.22 -0.32, -76.96 197.68 80
7 07/18/2021 02:17:26 0.04, -75.24 0.76, -71.96 373.11 80
8 07/19/2021 14:38:59 -0.03, -75.29 0.23, -76.53 140.57 80
9 07/20/2021 14:15:39 -0.04, -75.31 -0.90, -71.54 430.30 80
10 07/22/2021 02:37:17 0.03, -75.31 -0.14, -76.13 92.73 80
11 07/23/2021 02:13:58 0.04, -75.33 1.00, -71.14 478.25 80
